AirNav   ProFlight Series 2 Aviation Headset
 
 989 users online  

45MI Rotor-Lift Heliport
Swartz Creek, Michigan, USA

GOING TO SWARTZ CREEK?


FAA INFORMATION EFFECTIVE 18 JUNE 2020

Location

FAA Identifier: 45MI
Lat/Long: 42-52-12.8100N 083-49-25.3400W
42-52.213500N 083-49.422333W
42.8702250,-83.8237056
(estimated)
Elevation: 850 ft. / 259 m
From city: 5 miles S of SWARTZ CREEK, MI
Time zone: UTC -4 (UTC -5 during Standard Time)
Zip code: 48436

Heliport Operations

Heliport use: Private use. Permission required prior to landing
Activation date: 04/2019
Control tower: no
ARTCC: CLEVELAND CENTER
FSS: LANSING FLIGHT SERVICE STATION
Attendance: 
Segmented circle: no

Heliport Communications

WX ASOS at FNT (7 nm NE): 133.15 (810-342-7804)
WX AWOS-3 at RNP (16 nm NW): 118.025 (989-729-2967)
WX AWOS-3 at OZW (16 nm SW): 118.875 (517-546-4450)

Nearby radio navigation aids

VOR radial/distance  VOR name  Freq  Var
FNTr216/6.7FLINT VORTAC116.9006W
SVMr343/29.5SALEM VORTAC114.3003W

Heliport Services

Runway Information

Helipad H1

Dimensions: 90 x 90 ft. / 27 x 27 m
Surface: turf
Traffic pattern: leftleft

Heliport Ownership and Management from official FAA records

Ownership: Privately-owned
Owner: JOHN T KRUG
10508 BEERS RD
SWARTZ CREEK, MI 48473-9125
Phone 810-577-2168
Manager: JOHN T KRUG
10508 BEERS RD
SWARTZ CREEK, MI 48473-9125
Phone 810-577-2168

Additional Remarks

FOR CD CTC GREAT LAKES APCH AT 269-459-3345, WHEN APCH CLSD CTC CLEVELAND ARTCC AT 440-774-0224/0490.

Instrument Procedures

There are no published instrument procedures at 45MI.

Some nearby airports with instrument procedures:

9G2 - Price's Airport (4 nm SE)
KFNT - Bishop International Airport (7 nm NE)
KRNP - Owosso Community Airport (16 nm NW)
KOZW - Livingston County Spencer J Hardy Airport (16 nm SW)
KPTK - Oakland County International Airport (22 nm SE)
 
Loc | Ops | Rwys | IFR | FBO | Links
Com | Nav | Svcs | Stats | Notes
Aerial photo
No photo
 
Airport distance calculator
Flying to Rotor-Lift Heliport? Find the distance to fly.

From to 45MI

Sunrise and sunset
Times for 12-Jul-2020
 Local
(UTC-4)
 Zulu
(UTC)
Morning civil twilight05:3509:35
Sunrise06:0910:09
Sunset21:1201:12
Evening civil twilight21:4701:47

Current date and time
Zulu (UTC)  12-Jul-2020 18:58:51
Local (UTC-4)  12-Jul-2020 14:58:51
 
METAR
KFNT 
7nm NE 
121853Z AUTO 29015G18KT 10SM SCT042 BKN050 26/14 A2982 RMK AO2 SLP094 T02610144
KRNP 
16nm NW 
121855Z AUTO 29008KT 10SM SCT040 SCT049 BKN060 24/15 A2983 RMK AO2 T02430149
KOZW 
16nm SW 
121835Z AUTO 28011KT 10SM SCT037 SCT046 SCT050 25/15 A2983 RMK AO2 T02540153
TAF
KFNT 
7nm NE 
121734Z 1218/1318 31010KT P6SM BKN045 FM130200 02004KT P6SM SCT080 FM131000 32005KT P6SM SCT250 FM131400 33007KT P6SM BKN050
NOTAMs
Click for the latest NOTAMs
NOTAMs are issued by the DoD/FAA and will open in a separate window not controlled by AirNav.

 

 
 

Would you like to see your business listed on this page?

 If your business provides an interesting product or service to pilots, flight crews, aircraft, or users of the Rotor-Lift Heliport, you should consider listing it here.  To start the listing process, click on the button below
 
Add a business
 

Other Pages about Rotor-Lift Heliport

Update a link
 
Copyright © AirNav, LLC. All rights reserved. Privacy Policy  Contact